(326104) = 2010 DK85 = 2011 CQ32

Discovered at 7300 on 2007-08-12 by W. K. Y. Yeung.

Orbit

Orbit type: Hilda

Note: WebGL enabled browser required.

epoch2023-09-13.0
epoch JD2460200.5
perihelion date2016-03-22.71506
perihelion JD2457470.21506
argument of perihelion (°)66.23705
ascending node (°)308.03781
inclination (°)4.54225
eccentricity0.0477023
perihelion distance (AU)3.6586208
Tisserand w.r.t. Jupiter3.1
ΔV w.r.t. Earth (km/sec)11.6
semimajor axis (AU)3.8418878
mean anomaly (°)357.35083
mean daily motion (°/day)0.13088410
aphelion distance (AU)4.025
period (years)7.53
P-vector [x]0.96686006
P-vector [y]0.19577090
P-vector [z]0.16387614
Q-vector [x]-0.24757049
Q-vector [y]0.87574473
Q-vector [z]0.41446355
absolute magnitude15.49
phase slope0.15
uncertainty0
referenceMPEC 2024-B20
observations used244
oppositions12
arc length (days)6001
first opposition used2007
last opposition used2024
residual rms (arc-secs)0.75
perturbers coarse indicatorM-v
perturbers precise indicator003Ek
first observation date used2007-08-12.0
last observation date used2024-01-16.0
computer nameMPCLINUX
Minimum Orbit Intersection Distances (in AU)
for orbit epoch: 2460200.5, reference: E2024-B20
Mercury3.30412
Venus2.94004
Earth2.66142
Mars2.21209
Jupiter1.32312
Saturn5.23046
Uranus14.4524
Neptune26.1955

Observations

248 total observations over interval: 2007 08 12.26001 – 2024 01 16.168315
These data are available for download (format description).

Date (UT) J2000 RA J2000 Dec Magn Location Ref
2007 08 12.26001 21 01 24.41 -16 12 33.8 20.9 R H07 – 7300 Observatory, Cloudcroft MPS 378808
2007 08 12.26866 21 01 24.16 -16 12 36.3 20.2 R H07 – 7300 Observatory, Cloudcroft MPS 378808
2007 08 12.27753 21 01 23.76 -16 12 37.3 20.5 R H07 – 7300 Observatory, Cloudcroft MPS 378808
2007 09 10.19902 20 45 11.34 -16 55 47.3 22.0 V G96 – Mt. Lemmon Survey MPS 378808
2007 09 10.20561 20 45 11.16 -16 55 47.8 20.9 V G96 – Mt. Lemmon Survey MPS 378808
2007 09 10.21226 20 45 11.01 -16 55 48.0 20.8 V G96 – Mt. Lemmon Survey MPS 378808
2007 09 10.21884 20 45 10.83 -16 55 48.6 21.1 V G96 – Mt. Lemmon Survey MPS 378808
2008 09 04.40720 01 04 11.34 +12 29 45.0 21.1 V 691 – Steward Observatory, Kitt Peak-Spacewatch MPS 378808
2008 09 04.42480 01 04 10.90 +12 29 43.5 20.9 V 691 – Steward Observatory, Kitt Peak-Spacewatch MPS 378808
2008 09 04.44242 01 04 10.47 +12 29 42.7 21.1 V 691 – Steward Observatory, Kitt Peak-Spacewatch MPS 378808
2009 10 26.45662 05 20 21.37 +27 59 19.3 20.7 V G96 – Mt. Lemmon Survey MPS 378808
2009 10 26.46425 05 20 21.30 +27 59 19.1 21.0 V G96 – Mt. Lemmon Survey MPS 378808
2009 10 26.47187 05 20 21.12 +27 59 19.6 20.7 V G96 – Mt. Lemmon Survey MPS 378808
2009 10 26.47948 05 20 20.97 +27 59 19.4 21.4 V G96 – Mt. Lemmon Survey MPS 378808
2010 02 25.681166 04 37 09.514 +25 19 04.91   C51 – WISE MPS 904069
2010 02 25.813470 04 37 13.454 +25 19 01.27   C51 – WISE MPS 904069
2010 02 25.813597 04 37 13.33 +25 19 02.0   C51 – WISE MPS 335222
2010 02 25.81360 04 37 13.59 +25 19 02.4   C51 – WISE MPS 335222
2010 02 25.945902 04 37 17.834 +25 18 59.22   C51 – WISE MPS 904069
2010 02 26.07821 04 37 21.96 +25 18 55.5   C51 – WISE MPS 335222
2010 02 26.144294 04 37 24.26 +25 18 54.6   C51 – WISE MPS 335222
2010 02 26.276726 04 37 28.21 +25 18 54.5   C51 – WISE MPS 335222
2010 02 26.409029 04 37 32.422 +25 18 49.54   C51 – WISE MPS 904069
2010 02 26.541333 04 37 36.64 +25 18 48.3   C51 – WISE MPS 335222
2010 02 26.67364 04 37 40.86 +25 18 42.9   C51 – WISE MPS 335222
2011 01 16.38200 09 05 07.62 +16 33 37.3 20.7 V G96 – Mt. Lemmon Survey MPS 372172
2011 01 16.39007 09 05 07.29 +16 33 37.9 20.7 V G96 – Mt. Lemmon Survey MPS 372172
2011 01 16.39809 09 05 06.97 +16 33 39.4 21.1 V G96 – Mt. Lemmon Survey MPS 372172
2011 01 16.40621 09 05 06.64 +16 33 39.7 21.2 V G96 – Mt. Lemmon Survey MPS 372172
2011 01 30.49245 08 55 24.270 +17 02 33.43 21.4 w F51 – Pan-STARRS 1, Haleakala MPS 378808
2011 01 30.50873 08 55 23.555 +17 02 35.48 21.4 w F51 – Pan-STARRS 1, Haleakala MPS 378808
2011 01 30.52381 08 55 22.889 +17 02 37.28 21.5 w F51 – Pan-STARRS 1, Haleakala MPS 378808
2011 02 08.23363 08 49 10.63 +17 20 27.4 21.5 V G96 – Mt. Lemmon Survey MPS 369740
2011 02 08.24007 08 49 10.38 +17 20 28.3 21.4 V G96 – Mt. Lemmon Survey MPS 369740
2011 02 08.24647 08 49 10.12 +17 20 28.9 20.8 V G96 – Mt. Lemmon Survey MPS 369740
2011 02 08.25289 08 49 09.84 +17 20 29.8 20.7 V G96 – Mt. Lemmon Survey MPS 369740
2011 02 09.24513 08 48 28.36 +17 22 26.1 20.8 V G96 – Mt. Lemmon Survey MPS 369740
2011 02 09.25635 08 48 27.86 +17 22 27.4 20.6 V G96 – Mt. Lemmon Survey MPS 369740
2011 02 09.26755 08 48 27.46 +17 22 28.8 20.5 V G96 – Mt. Lemmon Survey MPS 369740
2011 02 09.27874 08 48 26.92 +17 22 29.8 20.6 V G96 – Mt. Lemmon Survey MPS 369740
2011 02 25.15674 08 38 29.65 +17 48 43.2 22.1 V G96 – Mt. Lemmon Survey MPS 372172
2011 02 25.16368 08 38 29.43 +17 48 43.9 21.4 V G96 – Mt. Lemmon Survey MPS 372172
2011 02 25.17068 08 38 29.18 +17 48 43.9 21.5 V G96 – Mt. Lemmon Survey MPS 372172
2011 02 25.17771 08 38 28.89 +17 48 44.9 21.4 V G96 – Mt. Lemmon Survey MPS 372172
2012 02 27.46936 12 15 46.084 -06 42 29.20 21.6 w F51 – Pan-STARRS 1, Haleakala MPS 414297
2012 02 27.48412 12 15 45.629 -06 42 27.33 21.6 w F51 – Pan-STARRS 1, Haleakala MPS 414297
2012 02 27.49893 12 15 45.173 -06 42 25.58 21.6 w F51 – Pan-STARRS 1, Haleakala MPS 414297
2012 02 27.51370 12 15 44.708 -06 42 23.72 21.6 w F51 – Pan-STARRS 1, Haleakala MPS 414297
2012 03 16.36145 12 05 27.60 -05 53 28.5 20.5 V G96 – Mt. Lemmon Survey MPS 416188
2012 03 16.36894 12 05 27.34 -05 53 27.1 20.2 V G96 – Mt. Lemmon Survey MPS 416188
2012 03 16.37641 12 05 27.06 -05 53 25.5 20.9 V G96 – Mt. Lemmon Survey MPS 416188
2012 03 16.38391 12 05 26.70 -05 53 24.0 20.9 V G96 – Mt. Lemmon Survey MPS 416188
2015 08 13.72082 23 09 13.28 -01 55 13.7 21.2 R D29 – Purple Mountain Observatory, XuYi Station MPS 620978
2015 08 13.73669 23 09 12.75 -01 55 16.0 20.5 R D29 – Purple Mountain Observatory, XuYi Station MPS 620978
2015 08 13.75257 23 09 12.28 -01 55 18.2 19.9 R D29 – Purple Mountain Observatory, XuYi Station MPS 620978
2015 09 06.40242 22 55 03.08 -02 58 08.0 20.3 V 691 – Steward Observatory, Kitt Peak-Spacewatch MPS 626526
2015 09 06.42123 22 55 02.34 -02 58 11.4 20.2 V 691 – Steward Observatory, Kitt Peak-Spacewatch MPS 626526
2015 09 06.44001 22 55 01.59 -02 58 15.2 20.3 V 691 – Steward Observatory, Kitt Peak-Spacewatch MPS 626526
2015 09 09.32062 22 53 10.000 -03 07 34.44 20.4 w F51 – Pan-STARRS 1, Haleakala MPS 626526
2015 09 09.33280 22 53 09.523 -03 07 36.81 20.4 w F51 – Pan-STARRS 1, Haleakala MPS 626526
2015 09 09.34491 22 53 09.044 -03 07 39.28 20.4 w F51 – Pan-STARRS 1, Haleakala MPS 626526
2015 09 09.35697 22 53 08.561 -03 07 41.54 20.4 w F51 – Pan-STARRS 1, Haleakala MPS 626526
2015 09 09.61416 22 52 58.52 -03 08 32.8 19.8 R D29 – Purple Mountain Observatory, XuYi Station MPS 626526
2015 09 09.64238 22 52 57.48 -03 08 38.1 20.4 R D29 – Purple Mountain Observatory, XuYi Station MPS 626526
2015 09 12.34935 22 51 13.364 -03 17 29.16 20.4 w F51 – Pan-STARRS 1, Haleakala MPS 628456
2015 09 12.36125 22 51 12.895 -03 17 31.50 20.4 w F51 – Pan-STARRS 1, Haleakala MPS 628456
2015 09 12.37308 22 51 12.434 -03 17 33.78 20.4 w F51 – Pan-STARRS 1, Haleakala MPS 628456
2015 09 12.38496 22 51 11.964 -03 17 36.18 20.4 w F51 – Pan-STARRS 1, Haleakala MPS 628456
2015 10 12.13587 22 36 10.88 -04 41 45.2   691 – Steward Observatory, Kitt Peak-Spacewatch MPS 635284
2015 10 12.16384 22 36 10.34 -04 41 48.2   691 – Steward Observatory, Kitt Peak-Spacewatch MPS 635284
2015 10 12.18270 22 36 09.98 -04 41 51.0   691 – Steward Observatory, Kitt Peak-Spacewatch MPS 635284
2015 10 16.26689 22 35 02.314 -04 49 12.53 21.5 w F51 – Pan-STARRS 1, Haleakala MPS 635284
2015 10 16.27898 22 35 02.119 -04 49 13.97 21.6 w F51 – Pan-STARRS 1, Haleakala MPS 635284
2015 10 16.29109 22 35 01.944 -04 49 15.04 21.3 w F51 – Pan-STARRS 1, Haleakala MPS 635284
2015 10 16.30321 22 35 01.746 -04 49 16.10 21.5 w F51 – Pan-STARRS 1, Haleakala MPS 635284
2015 12 01.21269 22 42 02.019 -04 25 14.72 21.4 w F51 – Pan-STARRS 1, Haleakala MPS 656902
2015 12 01.22434 22 42 02.381 -04 25 12.91 21.5 w F51 – Pan-STARRS 1, Haleakala MPS 656902
2015 12 01.23602 22 42 02.723 -04 25 10.88 21.7 w F51 – Pan-STARRS 1, Haleakala MPS 656902
2015 12 01.24767 22 42 03.094 -04 25 09.03 21.7 w F51 – Pan-STARRS 1, Haleakala MPS 656902
2016 07 17.58697 02 41 09.040 +20 07 45.77 21.9 w F51 – Pan-STARRS 1, Haleakala MPS 721128
2016 07 17.59235 02 41 09.300 +20 07 47.83 22.0 w F51 – Pan-STARRS 1, Haleakala MPS 721128
2016 07 17.59771 02 41 09.591 +20 07 49.01 22.0 w F51 – Pan-STARRS 1, Haleakala MPS 721128
2016 07 17.60308 02 41 09.833 +20 07 50.64 21.8 w F51 – Pan-STARRS 1, Haleakala MPS 721128
2016 10 04.39524 03 03 12.48 +23 23 25.4 20.4 V G96 – Mt. Lemmon Survey MPS 734012
2016 10 04.40097 03 03 12.31 +23 23 25.3 20.8 V G96 – Mt. Lemmon Survey MPS 734012
2016 10 04.40675 03 03 12.18 +23 23 25.5 20.7 V G96 – Mt. Lemmon Survey MPS 734012
2016 10 04.41253 03 03 12.01 +23 23 25.4 20.5 V G96 – Mt. Lemmon Survey MPS 734012
2016 10 07.43985 03 01 52.627 +23 21 23.14 20.8 w F51 – Pan-STARRS 1, Haleakala MPS 735966
2016 10 07.45288 03 01 52.254 +23 21 22.56 20.8 w F51 – Pan-STARRS 1, Haleakala MPS 735966
2016 10 07.46593 03 01 51.875 +23 21 21.90 20.7 w F51 – Pan-STARRS 1, Haleakala MPS 735966
2016 10 07.47900 03 01 51.491 +23 21 21.30 20.9 w F51 – Pan-STARRS 1, Haleakala MPS 735966
2016 10 25.50801 02 51 18.063 +22 51 17.56 20.6 w F51 – Pan-STARRS 1, Haleakala MPS 739406
2016 10 25.53595 02 51 16.893 +22 51 13.36 20.6 w F51 – Pan-STARRS 1, Haleakala MPS 739406
2016 10 25.54996 02 51 16.316 +22 51 11.24 20.6 w F51 – Pan-STARRS 1, Haleakala MPS 739406
2016 11 05.67240 02 43 24.51 +22 19 02.0 20.9 R D29 – Purple Mountain Observatory, XuYi Station MPS 744802
2016 11 05.70068 02 43 23.33 +22 18 56.2 20.0 R D29 – Purple Mountain Observatory, XuYi Station MPS 744802
